Quick links : Home Page : Contact Us : Index : Site Map : Search Site : Ephemerides


(163818) 2003 RX7

Orbital Elements

The following orbital elements are taken from MPO123559
(163818) 2003 RX7
Epoch 2007 Oct. 27.0 TT = JDT 2454400.5                 MPC
M 265.38915              (2000.0)            P               Q
n   0.72305859     Peri.  245.71448     -0.58676448     -0.79420243
a   1.2293826      Node   241.14502     +0.79285748     -0.52383731
e   0.3545735      Incl.   10.38995     +0.16457358     -0.30795613
P   1.36           H   18.4           G   0.15           U   1
From 285 observations at 3 oppositions, 2003-2007, mean residual 0".44.
An explanation of the orbital elements is available.

These orbital elements are also available in forms suitable for loading into a number of popular planetarium-type software programs.


Ephemeris

The following ephemeris is at intervals of five days. A daily ephemeris covering the same time interval is also available.

Personalized ephemerides for this (and other) objects may be generated using the Minor Planet & Comet Ephemeris Service.

Date    TT    R. A. (2000) Decl.     Delta      r     Elong.  Phase     V
2008 04 14    05 45.05   +01 06.6    0.358    0.905    63.9    95.2    19.4
2008 04 19    06 18.24   +00 43.4    0.335    0.931    67.7    92.8    19.2
2008 04 24    06 54.44   +00 20.0    0.317    0.958    72.2    89.4    19.0
2008 04 29    07 33.27   -00 03.0    0.306    0.986    77.2    85.2    18.8
2008 05 04    08 13.80   -00 25.7    0.302    1.014    82.5    80.3    18.6
2008 05 09    08 54.62   -00 48.2    0.305    1.044    87.8    75.2    18.5
2008 05 14    09 34.16   -01 10.7    0.315    1.073    92.7    70.2    18.5
2008 05 19    10 11.12   -01 33.4    0.333    1.102    96.9    65.7    18.5
2008 05 24    10 44.76   -01 56.5    0.357    1.132   100.2    61.8    18.6
2008 05 29    11 14.87   -02 20.6    0.386    1.161   102.6    58.5    18.8
2008 06 03    11 41.64   -02 46.1    0.420    1.189   104.2    55.8    18.9
2008 06 08    12 05.46   -03 13.5    0.458    1.217   105.1    53.6    19.1
2008 06 13    12 26.77   -03 42.6    0.499    1.245   105.4    51.9    19.3
2008 06 18    12 45.97   -04 13.4    0.543    1.271   105.2    50.5    19.5
2008 06 23    13 03.45   -04 45.6    0.590    1.298   104.6    49.3    19.7
2008 06 28    13 19.54   -05 19.2    0.638    1.323   103.8    48.3    19.8
2008 07 03    13 34.50   -05 53.9    0.689    1.347   102.7    47.4    20.0
2008 07 08    13 48.58   -06 29.5    0.741    1.371   101.4    46.6    20.2
2008 07 13    14 01.94   -07 05.8    0.794    1.394   100.0    45.9    20.4
2008 07 18    14 14.73   -07 42.4    0.849    1.416    98.4    45.2    20.5
2008 07 23    14 27.05   -08 19.1    0.905    1.437    96.7    44.6    20.7
2008 07 28    14 39.01   -08 55.6    0.961    1.457    95.0    44.0    20.8
2008 08 02    14 50.69   -09 31.8    1.019    1.477    93.1    43.3    21.0

Back to Observable Critical-List Minor Planets

MPC

Valid HTML 4.01!